Time,TemperatureF,DewpointF,PressureIn,WindDirection,WindDirectionDegrees,WindSpeedMPH,WindSpeedGustMPH,Humidity,HourlyPrecipIn,Conditions,Clouds,dailyrainin,SoftwareType,DateUTC
2013-11-28 00:09:00,24.8,17.4,30.33,NE,45,0.0,0.0,73,0.00,,OVC045,0.00,VWS V14.01,2013-11-28 05:09:00,
2013-11-28 00:19:00,24.6,17.2,30.33,NE,45,0.0,0.0,73,0.00,,OVC045,0.00,VWS V14.01,2013-11-28 05:19:00,
2013-11-28 00:29:00,24.6,16.9,30.33,NE,45,0.0,0.0,72,0.00,,OVC045,0.00,VWS V14.01,2013-11-28 05:29:00,
2013-11-28 00:39:00,24.6,16.9,30.33,NE,45,0.0,0.0,72,0.00,,OVC045,0.00,VWS V14.01,2013-11-28 05:39:00,
2013-11-28 00:49:00,24.6,16.9,30.33,NE,45,0.0,0.0,72,0.00,,OVC045,0.00,VWS V14.01,2013-11-28 05:49:00,
2013-11-28 00:59:00,24.6,16.9,30.33,NE,45,0.0,0.0,72,0.00,,OVC045,0.00,VWS V14.01,2013-11-28 05:59:00,
2013-11-28 01:09:00,24.6,16.9,30.33,NE,45,0.0,0.0,72,0.00,,OVC045,0.00,VWS V14.01,2013-11-28 06:09:00,
2013-11-28 01:19:00,24.6,16.9,30.33,NE,45,0.0,0.0,72,0.00,,OVC045,0.00,VWS V14.01,2013-11-28 06:19:00,
2013-11-28 01:29:00,24.6,16.9,30.33,NE,45,0.0,0.0,72,0.00,,OVC045,0.00,VWS V14.01,2013-11-28 06:29:00,
2013-11-28 01:39:00,24.6,16.9,30.33,NE,45,0.0,0.0,72,0.00,,OVC045,0.00,VWS V14.01,2013-11-28 06:39:00,
2013-11-28 01:49:00,24.4,16.7,30.33,NE,45,0.0,0.0,72,0.00,,OVC045,0.00,VWS V14.01,2013-11-28 06:49:00,
2013-11-28 01:59:00,24.2,16.2,30.36,NE,45,0.0,0.0,71,0.00,,OVC045,0.00,VWS V14.01,2013-11-28 06:59:00,
2013-11-28 02:09:00,24.2,16.2,30.36,NE,45,0.0,0.0,71,0.00,,OVC045,0.00,VWS V14.01,2013-11-28 07:09:00,
2013-11-28 02:19:00,24.4,16.4,30.36,NE,45,0.0,0.0,71,0.00,,OVC045,0.00,VWS V14.01,2013-11-28 07:19:00,
2013-11-28 02:29:00,24.2,16.2,30.36,NE,45,0.0,0.0,71,0.00,,OVC045,0.00,VWS V14.01,2013-11-28 07:29:00,
2013-11-28 02:39:00,24.2,16.2,30.36,NE,45,0.0,0.0,71,0.00,,OVC045,0.00,VWS V14.01,2013-11-28 07:39:00,
2013-11-28 02:49:00,24.2,16.2,30.39,NE,45,0.0,0.0,71,0.00,,OVC045,0.00,VWS V14.01,2013-11-28 07:49:00,
2013-11-28 02:59:00,24.2,15.9,30.39,NE,45,0.0,0.0,70,0.00,,OVC045,0.00,VWS V14.01,2013-11-28 07:59:00,
2013-11-28 03:09:00,24.0,15.7,30.39,NE,45,0.0,0.0,70,0.00,,OVC045,0.00,VWS V14.01,2013-11-28 08:09:00,
2013-11-28 03:19:00,23.9,15.2,30.39,NE,45,0.0,0.0,69,0.00,,OVC045,0.00,VWS V14.01,2013-11-28 08:19:00,
2013-11-28 03:29:00,23.7,14.7,30.39,NE,45,0.0,0.0,68,0.00,,OVC045,0.00,VWS V14.01,2013-11-28 08:29:00,
2013-11-28 03:39:00,23.3,14.0,30.39,NE,45,0.0,0.0,67,0.00,,OVC045,0.00,VWS V14.01,2013-11-28 08:39:00,
2013-11-28 03:49:00,22.8,13.5,30.39,NE,45,0.0,0.0,67,0.00,,OVC045,0.00,VWS V14.01,2013-11-28 08:49:00,
2013-11-28 03:59:00,22.2,12.6,30.39,NE,45,0.0,0.0,66,0.00,,OVC045,0.00,VWS V14.01,2013-11-28 08:59:00,
2013-11-28 04:09:00,21.9,12.3,30.39,NE,45,0.0,0.0,66,0.00,,OVC045,0.00,VWS V14.01,2013-11-28 09:09:00,
2013-11-28 04:19:00,21.5,12.3,30.39,NE,45,0.0,0.0,67,0.00,,OVC045,0.00,VWS V14.01,2013-11-28 09:19:00,
2013-11-28 04:29:00,21.0,11.8,30.39,NE,45,0.0,0.0,67,0.00,,OVC045,0.00,VWS V14.01,2013-11-28 09:29:00,
2013-11-28 08:14:00,18.5,9.4,30.41,NE,45,0.0,0.0,67,0.00,,OVC045,0.00,VWS V14.01,2013-11-28 13:14:00,
2013-11-28 08:19:00,18.6,9.9,30.41,NE,45,0.0,0.0,68,0.00,,OVC045,0.00,VWS V14.01,2013-11-28 13:19:00,
2013-11-28 08:20:00,18.6,9.5,30.42,NE,45,0.0,0.0,67,0.00,,-RA,0.00,VWS V14.01,2013-11-28 13:20:00,
2013-11-28 08:24:00,18.6,9.9,30.41,NE,45,0.0,0.0,68,0.00,,OVC045,0.00,VWS V14.01,2013-11-28 13:24:00,
2013-11-28 08:29:00,18.8,10.0,30.41,NE,45,0.0,0.0,68,0.00,,OVC045,0.00,VWS V14.01,2013-11-28 13:29:00,
2013-11-28 08:34:00,18.8,10.0,30.41,NE,45,0.0,0.0,68,0.00,,CLR,0.00,VWS V14.01,2013-11-28 13:34:00,
2013-11-28 08:39:00,19.0,10.2,30.41,NE,45,0.0,0.0,68,0.00,,CLR,0.00,VWS V14.01,2013-11-28 13:39:00,
2013-11-28 08:40:00,19.0,10.2,30.42,NE,45,0.0,0.0,68,0.00,,-RA,0.00,VWS V14.01,2013-11-28 13:40:00,
2013-11-28 08:44:00,19.2,10.4,30.44,NE,45,0.0,0.0,68,0.00,,CLR,0.00,VWS V14.01,2013-11-28 13:44:00,
2013-11-28 08:49:00,19.4,10.9,30.44,NE,45,0.0,0.0,69,0.00,,CLR,0.00,VWS V14.01,2013-11-28 13:49:00,
2013-11-28 08:50:00,19.4,10.5,30.44,NE,45,0.0,0.0,68,0.00,,-RA,0.00,VWS V14.01,2013-11-28 13:50:00,
2013-11-28 08:54:00,19.5,11.0,30.44,NE,45,0.0,0.0,69,0.00,,CLR,0.00,VWS V14.01,2013-11-28 13:54:00,
2013-11-28 08:59:00,19.7,11.2,30.44,NE,45,0.0,0.0,69,0.00,,CLR,0.00,VWS V14.01,2013-11-28 13:59:00,
2013-11-28 09:00:00,19.5,11.0,30.44,NE,45,0.0,0.0,69,0.00,,-RA,0.00,VWS V14.01,2013-11-28 14:00:00,
2013-11-28 09:04:00,20.1,11.6,30.44,NE,45,0.0,0.0,69,0.00,,CLR,0.00,VWS V14.01,2013-11-28 14:04:00,
2013-11-28 09:09:00,20.3,11.7,30.44,NE,45,0.0,0.0,69,0.00,,CLR,0.00,VWS V14.01,2013-11-28 14:09:00,
2013-11-28 09:10:00,20.1,11.6,30.44,NE,45,0.0,0.0,69,0.00,,-RA,0.00,VWS V14.01,2013-11-28 14:10:00,
2013-11-28 09:14:00,20.4,12.2,30.44,NE,45,0.0,0.0,70,0.00,,CLR,0.00,VWS V14.01,2013-11-28 14:14:00,
2013-11-28 09:19:00,20.8,12.6,30.44,NE,45,0.0,0.0,70,0.00,,CLR,0.00,VWS V14.01,2013-11-28 14:19:00,
2013-11-28 09:20:00,20.6,12.4,30.44,NE,45,0.0,0.0,70,0.00,,-RA,0.00,VWS V14.01,2013-11-28 14:20:00,
2013-11-28 09:24:00,21.0,13.1,30.44,NE,45,0.0,0.0,71,0.00,,CLR,0.00,VWS V14.01,2013-11-28 14:24:00,
2013-11-28 09:29:00,21.3,13.4,30.41,NE,45,0.0,0.0,71,0.00,,CLR,0.00,VWS V14.01,2013-11-28 14:29:00,
2013-11-28 09:30:00,21.3,13.4,30.42,NE,45,0.0,0.0,71,0.00,,-RA,0.00,VWS V14.01,2013-11-28 14:30:00,
2013-11-28 09:34:00,21.7,13.8,30.41,NE,45,0.0,0.0,71,0.00,,CLR,0.00,VWS V14.01,2013-11-28 14:34:00,
2013-11-28 09:40:00,21.9,13.9,30.41,NE,45,0.0,0.0,71,0.00,,CLR,0.00,VWS V14.01,2013-11-28 14:40:00,
2013-11-28 09:45:00,22.1,14.1,30.44,NE,45,0.0,0.0,71,0.00,,CLR,0.00,VWS V14.01,2013-11-28 14:45:00,
2013-11-28 09:50:00,22.6,14.6,30.44,NE,45,0.0,0.0,71,0.00,,CLR,0.00,VWS V14.01,2013-11-28 14:50:00,
2013-11-28 09:55:00,22.8,14.8,30.44,NE,45,0.0,0.0,71,0.00,,CLR,0.00,VWS V14.01,2013-11-28 14:55:00,
2013-11-28 10:00:00,23.3,15.3,30.44,NE,45,0.0,0.0,71,0.00,,CLR,0.00,VWS V14.01,2013-11-28 15:00:00,
2013-11-28 10:05:00,23.3,15.3,30.44,NE,45,0.0,0.0,71,0.00,,CLR,0.00,VWS V14.01,2013-11-28 15:05:00,
2013-11-28 10:10:00,23.9,15.5,30.44,NE,45,0.0,0.0,70,0.00,,CLR,0.00,VWS V14.01,2013-11-28 15:10:00,
2013-11-28 10:15:00,24.0,15.7,30.44,NE,45,0.0,0.0,70,0.00,,CLR,0.00,VWS V14.01,2013-11-28 15:15:00,
2013-11-28 10:20:00,24.4,16.0,30.44,NE,45,0.0,0.0,70,0.00,,CLR,0.00,VWS V14.01,2013-11-28 15:20:00,
2013-11-28 10:25:00,24.8,16.4,30.44,NE,45,0.0,0.0,70,0.00,,CLR,0.00,VWS V14.01,2013-11-28 15:25:00,
2013-11-28 10:30:00,25.1,16.4,30.44,NE,45,0.0,0.0,69,0.00,,CLR,0.00,VWS V14.01,2013-11-28 15:30:00,
2013-11-28 10:35:00,26.0,17.3,30.44,NE,45,0.0,0.0,69,0.00,,CLR,0.00,VWS V14.01,2013-11-28 15:35:00,
2013-11-28 10:40:00,26.6,17.8,30.44,NE,45,0.0,0.0,69,0.00,,CLR,0.00,VWS V14.01,2013-11-28 15:40:00,
2013-11-28 10:45:00,26.9,17.8,30.44,NE,45,0.0,0.0,68,0.00,,CLR,0.00,VWS V14.01,2013-11-28 15:45:00,
2013-11-28 10:50:00,27.3,17.4,30.44,NE,45,0.0,0.0,66,0.00,,CLR,0.00,VWS V14.01,2013-11-28 15:50:00,
2013-11-28 10:55:00,27.6,17.4,30.44,NE,45,0.0,0.0,65,0.00,,CLR,0.00,VWS V14.01,2013-11-28 15:55:00,
2013-11-28 11:00:00,28.0,17.8,30.44,NE,45,0.0,0.0,65,0.00,,CLR,0.00,VWS V14.01,2013-11-28 16:00:00,
2013-11-28 11:05:00,28.4,17.4,30.44,NE,45,0.0,0.0,63,0.00,,CLR,0.00,VWS V14.01,2013-11-28 16:05:00,
2013-11-28 11:10:00,28.7,17.7,30.44,NE,45,0.0,0.0,63,0.00,,CLR,0.00,VWS V14.01,2013-11-28 16:10:00,
2013-11-28 11:15:00,28.9,17.5,30.44,NE,45,0.0,0.0,62,0.00,,CLR,0.00,VWS V14.01,2013-11-28 16:15:00,
2013-11-28 11:20:00,29.1,17.3,30.44,NE,45,0.0,0.0,61,0.00,,CLR,0.00,VWS V14.01,2013-11-28 16:20:00,
2013-11-28 11:25:00,29.1,16.9,30.44,NE,45,0.0,0.0,60,0.00,,CLR,0.00,VWS V14.01,2013-11-28 16:25:00,
2013-11-28 11:30:00,29.3,17.1,30.44,NE,45,0.0,0.0,60,0.00,,CLR,0.00,VWS V14.01,2013-11-28 16:30:00,
2013-11-28 11:35:00,29.1,16.6,30.44,NE,45,0.0,0.0,59,0.00,,CLR,0.00,VWS V14.01,2013-11-28 16:35:00,
2013-11-28 11:40:00,29.4,16.5,30.44,NE,45,0.0,0.0,58,0.00,,CLR,0.00,VWS V14.01,2013-11-28 16:40:00,
2013-11-28 11:45:00,29.6,16.3,30.44,NE,45,0.0,0.0,57,0.00,,CLR,0.00,VWS V14.01,2013-11-28 16:45:00,
2013-11-28 11:50:00,30.0,15.8,30.44,NE,45,0.0,0.0,55,0.00,,CLR,0.00,VWS V14.01,2013-11-28 16:50:00,
2013-11-28 11:55:00,30.3,16.1,30.44,NE,45,0.0,0.0,55,0.00,,CLR,0.00,VWS V14.01,2013-11-28 16:55:00,
2013-11-28 12:00:00,30.5,16.3,30.47,NE,45,0.0,0.0,55,0.00,,CLR,0.00,VWS V14.01,2013-11-28 17:00:00,
2013-11-28 12:05:00,30.7,16.0,30.47,NE,45,0.0,0.0,54,0.00,,CLR,0.00,VWS V14.01,2013-11-28 17:05:00,
2013-11-28 12:10:00,31.4,16.7,30.47,NE,45,0.0,0.0,54,0.00,,CLR,0.00,VWS V14.01,2013-11-28 17:10:00,
2013-11-28 12:15:00,31.8,16.6,30.44,NE,45,0.0,0.0,53,0.00,,CLR,0.00,VWS V14.01,2013-11-28 17:15:00,
2013-11-28 12:20:00,32.1,17.0,30.44,NE,45,0.0,0.0,53,0.00,,CLR,0.00,VWS V14.01,2013-11-28 17:20:00,
2013-11-28 12:25:00,32.5,17.3,30.44,NE,45,0.0,0.0,53,0.00,,CLR,0.00,VWS V14.01,2013-11-28 17:25:00,
2013-11-28 12:30:00,32.7,17.5,30.44,NE,45,0.0,0.0,53,0.00,,CLR,0.00,VWS V14.01,2013-11-28 17:30:00,
2013-11-28 12:35:00,33.0,17.8,30.44,NE,45,0.0,0.0,53,0.00,,CLR,0.00,VWS V14.01,2013-11-28 17:35:00,
2013-11-28 12:40:00,33.4,18.1,30.44,NE,45,0.0,0.0,53,0.00,,CLR,0.00,VWS V14.01,2013-11-28 17:40:00,
2013-11-28 12:45:00,33.9,18.2,30.44,NE,45,0.0,0.0,52,0.00,,CLR,0.00,VWS V14.01,2013-11-28 17:45:00,
2013-11-28 12:50:00,33.6,16.9,30.44,NE,45,0.0,0.0,50,0.00,,CLR,0.00,VWS V14.01,2013-11-28 17:50:00,
2013-11-28 12:55:00,33.2,16.6,30.44,NE,45,0.0,0.0,50,0.00,,CLR,0.00,VWS V14.01,2013-11-28 17:55:00,
2013-11-28 13:00:00,33.2,16.6,30.44,NE,45,0.0,0.0,50,0.00,,CLR,0.00,VWS V14.01,2013-11-28 18:00:00,
2013-11-28 13:05:00,33.4,16.8,30.44,NE,45,0.0,0.0,50,0.00,,CLR,0.00,VWS V14.01,2013-11-28 18:05:00,
2013-11-28 13:10:00,33.8,17.1,30.44,NE,45,0.0,0.0,50,0.00,,CLR,0.00,VWS V14.01,2013-11-28 18:10:00,
2013-11-28 13:15:00,34.1,17.4,30.41,NE,45,0.0,0.0,50,0.00,,CLR,0.00,VWS V14.01,2013-11-28 18:15:00,
2013-11-28 13:20:00,34.3,16.7,30.41,NE,45,0.0,0.0,48,0.00,,CLR,0.00,VWS V14.01,2013-11-28 18:20:00,
2013-11-28 13:25:00,34.5,16.8,30.41,NE,45,0.0,0.0,48,0.00,,CLR,0.00,VWS V14.01,2013-11-28 18:25:00,
2013-11-28 13:30:00,34.7,16.5,30.44,NE,45,0.0,0.0,47,0.00,,CLR,0.00,VWS V14.01,2013-11-28 18:30:00,
2013-11-28 13:35:00,34.7,16.0,30.44,NE,45,0.0,0.0,46,0.00,,CLR,0.00,VWS V14.01,2013-11-28 18:35:00,
2013-11-28 13:40:00,34.5,15.9,30.44,NE,45,0.0,0.0,46,0.00,,CLR,0.00,VWS V14.01,2013-11-28 18:40:00,
2013-11-28 13:45:00,34.5,15.9,30.41,NE,45,0.0,0.0,46,0.00,,CLR,0.00,VWS V14.01,2013-11-28 18:45:00,
2013-11-28 13:50:00,34.7,16.0,30.41,NE,45,0.0,0.0,46,0.00,,CLR,0.00,VWS V14.01,2013-11-28 18:50:00,
2013-11-28 13:55:00,34.7,16.0,30.41,NE,45,0.0,0.0,46,0.00,,CLR,0.00,VWS V14.01,2013-11-28 18:55:00,
2013-11-28 14:00:00,34.7,16.0,30.41,NE,45,0.0,0.0,46,0.00,,CLR,0.00,VWS V14.01,2013-11-28 19:00:00,
2013-11-28 14:05:00,34.7,16.0,30.41,NE,45,0.0,0.0,46,0.00,,CLR,0.00,VWS V14.01,2013-11-28 19:05:00,
2013-11-28 14:10:00,34.5,15.4,30.41,NE,45,0.0,0.0,45,0.00,,CLR,0.00,VWS V14.01,2013-11-28 19:10:00,
2013-11-28 14:15:00,34.5,15.9,30.39,NE,45,0.0,0.0,46,0.00,,CLR,0.00,VWS V14.01,2013-11-28 19:15:00,
2013-11-28 14:20:00,34.5,15.9,30.39,NE,45,0.0,0.0,46,0.00,,CLR,0.00,VWS V14.01,2013-11-28 19:20:00,
2013-11-28 14:25:00,34.5,15.4,30.39,NE,45,0.0,0.0,45,0.00,,CLR,0.00,VWS V14.01,2013-11-28 19:25:00,
2013-11-28 14:30:00,34.7,16.0,30.39,NE,45,0.0,0.0,46,0.00,,CLR,0.00,VWS V14.01,2013-11-28 19:30:00,
2013-11-28 14:35:00,34.7,16.0,30.39,NE,45,0.0,0.0,46,0.00,,CLR,0.00,VWS V14.01,2013-11-28 19:35:00,
2013-11-28 14:40:00,34.7,15.5,30.39,NE,45,0.0,0.0,45,0.00,,CLR,0.00,VWS V14.01,2013-11-28 19:40:00,
2013-11-28 14:45:00,34.5,15.4,30.39,NE,45,0.0,0.0,45,0.00,,CLR,0.00,VWS V14.01,2013-11-28 19:45:00,
2013-11-28 14:50:00,34.3,14.7,30.39,NE,45,0.0,0.0,44,0.00,,CLR,0.00,VWS V14.01,2013-11-28 19:50:00,
2013-11-28 14:55:00,34.3,15.2,30.39,NE,45,0.0,0.0,45,0.00,,CLR,0.00,VWS V14.01,2013-11-28 19:55:00,
2013-11-28 15:00:00,34.3,15.2,30.39,NE,45,0.0,0.0,45,0.00,,CLR,0.00,VWS V14.01,2013-11-28 20:00:00,
2013-11-28 15:05:00,34.1,15.5,30.39,NE,45,0.0,0.0,46,0.00,,CLR,0.00,VWS V14.01,2013-11-28 20:05:00,
2013-11-28 15:10:00,34.1,15.5,30.39,NE,45,0.0,0.0,46,0.00,,CLR,0.00,VWS V14.01,2013-11-28 20:10:00,
2013-11-28 15:15:00,34.1,15.5,30.39,NE,45,0.0,0.0,46,0.00,,CLR,0.00,VWS V14.01,2013-11-28 20:15:00,
2013-11-28 15:20:00,34.1,15.0,30.39,NE,45,0.0,0.0,45,0.00,,CLR,0.00,VWS V14.01,2013-11-28 20:20:00,
2013-11-28 15:25:00,33.9,15.4,30.39,NE,45,0.0,0.0,46,0.00,,CLR,0.00,VWS V14.01,2013-11-28 20:25:00,
2013-11-28 15:30:00,33.8,15.2,30.39,NE,45,0.0,0.0,46,0.00,,CLR,0.00,VWS V14.01,2013-11-28 20:30:00,
2013-11-28 15:35:00,33.2,15.2,30.39,NE,45,0.0,0.0,47,0.00,,CLR,0.00,VWS V14.01,2013-11-28 20:35:00,
2013-11-28 15:40:00,32.7,14.7,30.39,NE,45,0.0,0.0,47,0.00,,CLR,0.00,VWS V14.01,2013-11-28 20:40:00,
2013-11-28 15:45:00,32.3,14.8,30.39,NE,45,0.0,0.0,48,0.00,,CLR,0.00,VWS V14.01,2013-11-28 20:45:00,
2013-11-28 15:50:00,32.1,15.6,30.39,NE,45,0.0,0.0,50,0.00,,CLR,0.00,VWS V14.01,2013-11-28 20:50:00,
2013-11-28 15:55:00,31.8,15.3,30.39,NE,45,0.0,0.0,50,0.00,,CLR,0.00,VWS V14.01,2013-11-28 20:55:00,
2013-11-28 16:00:00,31.4,15.4,30.39,NE,45,0.0,0.0,51,0.00,,CLR,0.00,VWS V14.01,2013-11-28 21:00:00,
2013-11-28 16:05:00,31.1,15.1,30.39,NE,45,0.0,0.0,51,0.00,,CLR,0.00,VWS V14.01,2013-11-28 21:05:00,
2013-11-28 16:10:00,30.9,15.3,30.39,NE,45,0.0,0.0,52,0.00,,CLR,0.00,VWS V14.01,2013-11-28 21:10:00,
2013-11-28 16:15:00,30.7,15.2,30.39,NE,45,0.0,0.0,52,0.00,,CLR,0.00,VWS V14.01,2013-11-28 21:15:00,
2013-11-28 16:20:00,30.5,15.4,30.39,NE,45,0.0,0.0,53,0.00,,CLR,0.00,VWS V14.01,2013-11-28 21:20:00,
2013-11-28 16:25:00,30.3,15.3,30.39,NE,45,0.0,0.0,53,0.00,,CLR,0.00,VWS V14.01,2013-11-28 21:25:00,
2013-11-28 16:30:00,30.2,15.5,30.39,NE,45,0.0,0.0,54,0.00,,CLR,0.00,VWS V14.01,2013-11-28 21:30:00,
2013-11-28 16:35:00,30.2,15.5,30.39,NE,45,0.0,0.0,54,0.00,,CLR,0.00,VWS V14.01,2013-11-28 21:35:00,
2013-11-28 16:40:00,30.0,15.8,30.39,NE,45,0.0,0.0,55,0.00,,CLR,0.00,VWS V14.01,2013-11-28 21:40:00,
2013-11-28 16:45:00,30.0,15.8,30.39,NE,45,0.0,0.0,55,0.00,,CLR,0.00,VWS V14.01,2013-11-28 21:45:00,
2013-11-28 16:50:00,29.8,16.0,30.39,NE,45,0.0,0.0,56,0.00,,CLR,0.00,VWS V14.01,2013-11-28 21:50:00,
2013-11-28 16:55:00,29.8,16.0,30.39,NE,45,0.0,0.0,56,0.00,,CLR,0.00,VWS V14.01,2013-11-28 21:55:00,
2013-11-28 17:00:00,29.6,15.9,30.41,NE,45,0.0,0.0,56,0.00,,FEW250,0.00,VWS V14.01,2013-11-28 22:00:00,
2013-11-28 17:05:00,29.6,16.3,30.41,NE,45,0.0,0.0,57,0.00,,FEW250,0.00,VWS V14.01,2013-11-28 22:05:00,
2013-11-28 17:10:00,29.4,16.1,30.41,NE,45,0.0,0.0,57,0.00,,FEW250,0.00,VWS V14.01,2013-11-28 22:10:00,
2013-11-28 17:15:00,29.3,16.3,30.41,NE,45,0.0,0.0,58,0.00,,FEW250,0.00,VWS V14.01,2013-11-28 22:15:00,
2013-11-28 17:20:00,29.3,16.3,30.41,NE,45,0.0,0.0,58,0.00,,FEW250,0.00,VWS V14.01,2013-11-28 22:20:00,
2013-11-28 17:25:00,29.1,16.2,30.41,NE,45,0.0,0.0,58,0.00,,FEW250,0.00,VWS V14.01,2013-11-28 22:25:00,
2013-11-28 17:30:00,29.1,16.6,30.41,NE,45,0.0,0.0,59,0.00,,FEW250,0.00,VWS V14.01,2013-11-28 22:30:00,
2013-11-28 17:35:00,28.9,16.4,30.41,NE,45,0.0,0.0,59,0.00,,FEW250,0.00,VWS V14.01,2013-11-28 22:35:00,
2013-11-28 17:40:00,28.7,16.6,30.41,NE,45,0.0,0.0,60,0.00,,FEW250,0.00,VWS V14.01,2013-11-28 22:40:00,
2013-11-28 17:45:00,28.5,16.4,30.41,NE,45,0.0,0.0,60,0.00,,FEW250,0.00,VWS V14.01,2013-11-28 22:45:00,
2013-11-28 17:50:00,28.5,16.4,30.41,NE,45,0.0,0.0,60,0.00,,FEW250,0.00,VWS V14.01,2013-11-28 22:50:00,
2013-11-28 17:55:00,28.4,16.6,30.44,NE,45,0.0,0.0,61,0.00,,FEW250,0.00,VWS V14.01,2013-11-28 22:55:00,
2013-11-28 18:00:00,28.4,16.6,30.44,NE,45,0.0,0.0,61,0.00,,FEW250,0.00,VWS V14.01,2013-11-28 23:00:00,
2013-11-28 18:06:00,28.2,16.5,30.44,NE,45,0.0,0.0,61,0.00,,FEW250,0.00,VWS V14.01,2013-11-28 23:06:00,
2013-11-28 18:10:00,28.2,16.5,30.44,NE,45,0.0,0.0,61,0.00,,-RA,0.00,VWS V14.01,2013-11-28 23:10:00,
2013-11-28 18:11:00,28.2,16.5,30.44,NE,45,0.0,0.0,61,0.00,,FEW250,0.00,VWS V14.01,2013-11-28 23:11:00,
2013-11-28 18:16:00,28.2,16.9,30.44,NE,45,0.0,0.0,62,0.00,,FEW250,0.00,VWS V14.01,2013-11-28 23:16:00,
2013-11-28 18:20:00,28.2,16.9,30.44,NE,45,0.0,0.0,62,0.00,,-RA,0.00,VWS V14.01,2013-11-28 23:20:00,
2013-11-28 18:21:00,28.0,16.7,30.44,NE,45,0.0,0.0,62,0.00,,FEW250,0.00,VWS V14.01,2013-11-28 23:21:00,
2013-11-28 18:26:00,28.0,16.7,30.44,NE,45,0.0,0.0,62,0.00,,FEW250,0.00,VWS V14.01,2013-11-28 23:26:00,
2013-11-28 18:30:00,28.0,16.7,30.44,NE,45,0.0,0.0,62,0.00,,-RA,0.00,VWS V14.01,2013-11-28 23:30:00,
2013-11-28 18:31:00,28.0,16.7,30.44,NE,45,0.0,0.0,62,0.00,,FEW250,0.00,VWS V14.01,2013-11-28 23:31:00,
2013-11-28 18:36:00,27.8,16.5,30.44,NE,45,0.0,0.0,62,0.00,,FEW250,0.00,VWS V14.01,2013-11-28 23:36:00,
2013-11-28 18:40:00,27.8,16.9,30.44,NE,45,0.0,0.0,63,0.00,,-RA,0.00,VWS V14.01,2013-11-28 23:40:00,
2013-11-28 18:41:00,27.8,16.9,30.44,NE,45,0.0,0.0,63,0.00,,FEW250,0.00,VWS V14.01,2013-11-28 23:41:00,
2013-11-28 18:46:00,27.6,16.7,30.44,NE,45,0.0,0.0,63,0.00,,FEW250,0.00,VWS V14.01,2013-11-28 23:46:00,
2013-11-28 18:50:00,27.6,16.7,30.44,NE,45,0.0,0.0,63,0.00,,-RA,0.00,VWS V14.01,2013-11-28 23:50:00,
2013-11-28 18:51:00,27.6,16.7,30.44,NE,45,0.0,0.0,63,0.00,,FEW250,0.00,VWS V14.01,2013-11-28 23:51:00,
2013-11-28 18:56:00,27.6,17.1,30.44,NE,45,0.0,0.0,64,0.00,,FEW250,0.00,VWS V14.01,2013-11-28 23:56:00,
2013-11-28 19:00:00,27.5,16.9,30.44,NE,45,0.0,0.0,64,0.00,,-RA,0.00,VWS V14.01,2013-11-29 00:00:00,
2013-11-28 19:01:00,27.5,16.9,30.44,NE,45,0.0,0.0,64,0.00,,CLR,0.00,VWS V14.01,2013-11-29 00:01:00,
2013-11-28 19:06:00,27.5,16.9,30.44,NE,45,0.0,0.0,64,0.00,,CLR,0.00,VWS V14.01,2013-11-29 00:06:00,
2013-11-28 19:10:00,27.5,16.9,30.44,NE,45,0.0,0.0,64,0.00,,-RA,0.00,VWS V14.01,2013-11-29 00:10:00,
2013-11-28 19:11:00,27.5,16.9,30.44,NE,45,0.0,0.0,64,0.00,,CLR,0.00,VWS V14.01,2013-11-29 00:11:00,
2013-11-28 19:16:00,27.3,17.1,30.44,NE,45,0.0,0.0,65,0.00,,CLR,0.00,VWS V14.01,2013-11-29 00:16:00,
2013-11-28 19:20:00,27.3,17.1,30.44,NE,45,0.0,0.0,65,0.00,,-RA,0.00,VWS V14.01,2013-11-29 00:20:00,
2013-11-28 19:21:00,27.3,17.1,30.44,NE,45,0.0,0.0,65,0.00,,CLR,0.00,VWS V14.01,2013-11-29 00:21:00,
2013-11-28 19:26:00,27.3,17.1,30.44,NE,45,0.0,0.0,65,0.00,,CLR,0.00,VWS V14.01,2013-11-29 00:26:00,
2013-11-28 19:30:00,27.3,17.1,30.44,NE,45,0.0,0.0,65,0.00,,-RA,0.00,VWS V14.01,2013-11-29 00:30:00,
2013-11-28 19:31:00,27.1,17.3,30.44,NE,45,0.0,0.0,66,0.00,,CLR,0.00,VWS V14.01,2013-11-29 00:31:00,
2013-11-28 19:36:00,27.1,17.3,30.44,NE,45,0.0,0.0,66,0.00,,CLR,0.00,VWS V14.01,2013-11-29 00:36:00,
2013-11-28 19:40:00,27.1,17.3,30.44,NE,45,0.0,0.0,66,0.00,,-RA,0.00,VWS V14.01,2013-11-29 00:40:00,
2013-11-28 19:41:00,27.1,17.3,30.44,NE,45,0.0,0.0,66,0.00,,CLR,0.00,VWS V14.01,2013-11-29 00:41:00,
2013-11-28 19:46:00,27.1,17.6,30.44,NE,45,0.0,0.0,67,0.00,,CLR,0.00,VWS V14.01,2013-11-29 00:46:00,
2013-11-28 19:50:00,27.1,17.6,30.44,NE,45,0.0,0.0,67,0.00,,-RA,0.00,VWS V14.01,2013-11-29 00:50:00,
2013-11-28 19:51:00,27.1,17.6,30.44,NE,45,0.0,0.0,67,0.00,,CLR,0.00,VWS V14.01,2013-11-29 00:51:00,
2013-11-28 19:56:00,27.1,17.6,30.44,NE,45,0.0,0.0,67,0.00,,CLR,0.00,VWS V14.01,2013-11-29 00:56:00,
2013-11-28 20:00:00,26.9,17.4,30.44,NE,45,0.0,0.0,67,0.00,,-RA,0.00,VWS V14.01,2013-11-29 01:00:00,
2013-11-28 20:01:00,26.9,17.4,30.44,NE,45,0.0,0.0,67,0.00,,CLR,0.00,VWS V14.01,2013-11-29 01:01:00,
2013-11-28 20:06:00,26.9,17.4,30.44,NE,45,0.0,0.0,67,0.00,,CLR,0.00,VWS V14.01,2013-11-29 01:06:00,
2013-11-28 20:10:00,26.7,17.6,30.44,NE,45,0.0,0.0,68,0.00,,-RA,0.00,VWS V14.01,2013-11-29 01:10:00,
2013-11-28 20:11:00,26.7,17.6,30.44,NE,45,0.0,0.0,68,0.00,,CLR,0.00,VWS V14.01,2013-11-29 01:11:00,
2013-11-28 20:16:00,26.6,17.4,30.44,NE,45,0.0,0.0,68,0.00,,CLR,0.00,VWS V14.01,2013-11-29 01:16:00,
2013-11-28 20:20:00,26.6,17.4,30.44,NE,45,0.0,0.0,68,0.00,,-RA,0.00,VWS V14.01,2013-11-29 01:20:00,
2013-11-28 20:21:00,26.6,17.4,30.44,NE,45,0.0,0.0,68,0.00,,CLR,0.00,VWS V14.01,2013-11-29 01:21:00,
2013-11-28 20:26:00,26.6,17.4,30.41,NE,45,0.0,0.0,68,0.00,,CLR,0.00,VWS V14.01,2013-11-29 01:26:00,
2013-11-28 20:30:00,26.6,17.4,30.42,NE,45,0.0,0.0,68,0.00,,-RA,0.00,VWS V14.01,2013-11-29 01:30:00,
2013-11-28 20:31:00,26.6,17.4,30.41,NE,45,0.0,0.0,68,0.00,,CLR,0.00,VWS V14.01,2013-11-29 01:31:00,
2013-11-28 20:36:00,26.6,17.8,30.41,NE,45,0.0,0.0,69,0.00,,CLR,0.00,VWS V14.01,2013-11-29 01:36:00,
2013-11-28 20:40:00,26.6,17.8,30.42,NE,45,0.0,0.0,69,0.00,,-RA,0.00,VWS V14.01,2013-11-29 01:40:00,
2013-11-28 20:41:00,26.6,17.8,30.41,NE,45,0.0,0.0,69,0.00,,CLR,0.00,VWS V14.01,2013-11-29 01:41:00,
2013-11-28 20:46:00,26.6,17.8,30.41,NE,45,0.0,0.0,69,0.00,,CLR,0.00,VWS V14.01,2013-11-29 01:46:00,
2013-11-28 20:50:00,26.6,17.8,30.42,NE,45,0.0,0.0,69,0.00,,-RA,0.00,VWS V14.01,2013-11-29 01:50:00,
2013-11-28 20:51:00,26.6,17.8,30.41,NE,45,0.0,0.0,69,0.00,,CLR,0.00,VWS V14.01,2013-11-29 01:51:00,
2013-11-28 20:56:00,26.6,18.1,30.44,NE,45,0.0,0.0,70,0.00,,CLR,0.00,VWS V14.01,2013-11-29 01:56:00,
2013-11-28 21:00:00,26.6,18.1,30.44,NE,45,0.0,0.0,70,0.00,,-RA,0.00,VWS V14.01,2013-11-29 02:00:00,
2013-11-28 21:01:00,26.6,18.1,30.44,NE,45,0.0,0.0,70,0.00,,CLR,0.00,VWS V14.01,2013-11-29 02:01:00,
2013-11-28 21:06:00,26.6,18.1,30.44,NE,45,0.0,0.0,70,0.00,,CLR,0.00,VWS V14.01,2013-11-29 02:06:00,
2013-11-28 21:10:00,26.4,17.9,30.44,NE,45,0.0,0.0,70,0.00,,-RA,0.00,VWS V14.01,2013-11-29 02:10:00,
2013-11-28 21:11:00,26.4,17.9,30.44,NE,45,0.0,0.0,70,0.00,,CLR,0.00,VWS V14.01,2013-11-29 02:11:00,
2013-11-28 21:16:00,26.2,17.8,30.44,NE,45,0.0,0.0,70,0.00,,CLR,0.00,VWS V14.01,2013-11-29 02:16:00,
2013-11-28 21:20:00,26.2,17.8,30.44,NE,45,0.0,0.0,70,0.00,,-RA,0.00,VWS V14.01,2013-11-29 02:20:00,
2013-11-28 21:21:00,26.2,17.8,30.44,NE,45,0.0,0.0,70,0.00,,CLR,0.00,VWS V14.01,2013-11-29 02:21:00,
2013-11-28 21:26:00,26.2,17.8,30.44,NE,45,0.0,0.0,70,0.00,,CLR,0.00,VWS V14.01,2013-11-29 02:26:00,
2013-11-28 21:30:00,26.2,18.1,30.44,NE,45,0.0,0.0,71,0.00,,-RA,0.00,VWS V14.01,2013-11-29 02:30:00,
2013-11-28 21:31:00,26.2,18.1,30.44,NE,45,0.0,0.0,71,0.00,,CLR,0.00,VWS V14.01,2013-11-29 02:31:00,
2013-11-28 21:36:00,26.2,18.1,30.44,NE,45,0.0,0.0,71,0.00,,CLR,0.00,VWS V14.01,2013-11-29 02:36:00,
2013-11-28 21:40:00,26.2,18.1,30.44,NE,45,0.0,0.0,71,0.00,,-RA,0.00,VWS V14.01,2013-11-29 02:40:00,
2013-11-28 21:41:00,26.2,18.1,30.44,NE,45,0.0,0.0,71,0.00,,CLR,0.00,VWS V14.01,2013-11-29 02:41:00,
2013-11-28 21:46:00,26.2,18.1,30.44,NE,45,0.0,0.0,71,0.00,,CLR,0.00,VWS V14.01,2013-11-29 02:46:00,
2013-11-28 21:50:00,26.2,18.1,30.44,NE,45,0.0,0.0,71,0.00,,-RA,0.00,VWS V14.01,2013-11-29 02:50:00,
2013-11-28 21:51:00,26.0,17.9,30.44,NE,45,0.0,0.0,71,0.00,,CLR,0.00,VWS V14.01,2013-11-29 02:51:00,
2013-11-28 21:56:00,26.0,17.9,30.44,NE,45,0.0,0.0,71,0.00,,CLR,0.00,VWS V14.01,2013-11-29 02:56:00,
2013-11-28 22:00:00,26.0,17.9,30.44,NE,45,0.0,0.0,71,0.00,,-RA,0.00,VWS V14.01,2013-11-29 03:00:00,
2013-11-28 22:01:00,25.8,17.8,30.44,NE,45,0.0,0.0,71,0.00,,CLR,0.00,VWS V14.01,2013-11-29 03:01:00,
2013-11-28 22:13:00,25.8,18.1,30.44,NE,45,0.0,0.0,72,0.00,,CLR,0.00,VWS V14.01,2013-11-29 03:13:00,
2013-11-28 22:23:00,25.8,18.1,30.44,NE,45,0.0,0.0,72,0.00,,CLR,0.00,VWS V14.01,2013-11-29 03:23:00,
2013-11-28 22:33:00,25.8,18.1,30.47,NE,45,0.0,0.0,72,0.00,,CLR,0.00,VWS V14.01,2013-11-29 03:33:00,
2013-11-28 22:43:00,25.8,18.1,30.47,NE,45,0.0,0.0,72,0.00,,CLR,0.00,VWS V14.01,2013-11-29 03:43:00,
2013-11-28 22:53:00,25.7,17.9,30.47,NE,45,0.0,0.0,72,0.00,,CLR,0.00,VWS V14.01,2013-11-29 03:53:00,
2013-11-28 23:03:00,25.7,18.2,30.47,NE,45,0.0,0.0,73,0.00,,CLR,0.00,VWS V14.01,2013-11-29 04:03:00,
2013-11-28 23:13:00,25.7,18.2,30.50,NE,45,0.0,0.0,73,0.00,,CLR,0.00,VWS V14.01,2013-11-29 04:13:00,
2013-11-28 23:23:00,25.5,18.0,30.50,NE,45,0.0,0.0,73,0.00,,CLR,0.00,VWS V14.01,2013-11-29 04:23:00,
2013-11-28 23:43:00,25.5,18.0,30.50,NE,45,0.0,0.0,73,0.00,,CLR,0.00,VWS V14.01,2013-11-29 04:43:00,
2013-11-28 23:53:00,25.5,18.4,30.50,NE,45,0.0,0.0,74,0.00,,CLR,0.00,VWS V14.01,2013-11-29 04:53:00,